This is the latest recevied weather packets stored in our database for station/object KE0YJJ-14. If no packets are shown the sender has not sent any weather packets the latest 10 day(s).
| Time | Temp. | Humidity | Pressure | Rain* | Wind** | Luminosity | Snow |
|---|---|---|---|---|---|---|---|
| 1777489004 | 10.56° C | 40% | - | 0 mm | - | - | - |
| 1777488701 | 10.56° C | 38% | - | 0 mm | - | - | - |
| 1777488399 | 10.56° C | 38% | - | 0 mm | - | - | - |
| 1777488097 | 11.67° C | 36% | - | 0 mm | - | - | - |
| 1777487795 | 11.67° C | 37% | - | 0 mm | - | - | - |
| 1777487492 | 11.67° C | 36% | - | 0 mm | - | - | - |
| 1777487190 | 11.67° C | 38% | - | 0 mm | - | - | - |
| 1777486885 | 11.11° C | 39% | - | 0 mm | - | - | - |
| 1777486583 | 11.67° C | 38% | - | 0 mm | - | - | - |
| 1777486280 | 11.11° C | 37% | - | 0 mm | - | - | - |
| 1777485978 | 11.11° C | 38% | - | 0 mm | - | - | - |
| 1777485674 | 11.67° C | 38% | - | 0 mm | - | - | - |
| 1777485369 | 10.56° C | 41% | - | 0 mm | - | - | - |
| 1777485066 | 9.44° C | 42% | - | 0 mm | - | - | - |
| 1777484763 | 10.56° C | 40% | - | 0 mm | - | - | - |
| 1777484459 | 10° C | 41% | - | 0 mm | - | - | - |
| 1777484156 | 10° C | 43% | - | 0 mm | - | - | - |
| 1777483852 | 10.56° C | 40% | - | 0 mm | - | - | - |
| 1777483548 | 10° C | 41% | - | 0 mm | - | - | - |
| 1777483243 | 11.11° C | 42% | - | 0 mm | - | - | - |
| 1777482940 | 10° C | 40% | - | 0 mm | - | - | - |
| 1777482636 | 10.56° C | 40% | - | 0 mm | - | - | - |
| 1777482333 | 11.11° C | 40% | - | 0 mm | - | - | - |
| 1777482031 | 10.56° C | 41% | - | 0 mm | - | - | - |
| 1777481728 | 10.56° C | 40% | - | 0 mm | - | - | - |
* Rain latest hour (hover to see other rain measurements)
** Current wind speed in m/s (hover to see current wind gust speed)